Home   Weather   Bonn   Past weeks
Flag for Germany

Past Weather in Bonn, North Rhine-Westphalia, Germany — Yesterday and Last 2 Weeks

Now
69 °F

Partly sunny.


Feels Like: 69 °F
Forecast: 82 / 58 °F
Wind: 3 mph from Southwest

Location: Aachen-Orsbach

Current Time: Jul 21, 2019 at 2:56:04 pm

Latest Report: Jul 21, 2019 at 1:00 pm


Visibility: 22 mi

Pressure: 30.17 "Hg

Humidity: 68%

Dew Point: 58 °F

Location of BonnLocation

Past Weather in Bonn — Graph

°F

Bonn Temperature Yesterday

Maximum temperature yesterday: 79 °F (at 12:00 pm)
Minimum temperature yesterday: 63 °F (at 1:00 am)
Average temperature yesterday: 70 °F

High & Low Weather Summary for the Past Weeks

 TemperatureHumidityPressure
High80 °F (Jul 6, 4:00 pm)96% (Jul 19, 6:00 am)30.18 "Hg (Jul 19, 6:00 am)
Low46 °F (Jul 9, 4:00 am)37% (Jul 6, 4:00 pm)29.81 "Hg (Jul 20, 4:00 pm)
Average61 °F74%30.01 "Hg
* Reported Jul 6 1:00 pm — Jul 21 1:00 pm, Bonn. Weather by CustomWeather, © 2019

Note: Actual official high and low records may vary slightly from our data, if they occured in-between our weather recording intervals... More about our weather records

Advertising

Bonn Weather History for the Previous 24 Hours

Scroll right to see more
 ConditionsComfort  
Time TempWeatherWind HumidityBarometerVisibility
1:00 pm
Sun, Jul 21
69 °FPartly sunny.3 mph68%30.17 "Hg22 mi
12:00 pm68 °FOvercast.5 mph69%30.16 "Hg25 mi
10:00 am63 °FOvercast.5 mph80%30.13 "Hg16 mi
9:00 am63 °FOvercast.6 mph80%30.11 "Hg19 mi
7:00 am60 °FOvercast.5 mph84%30.09 "Hg28 mi
6:00 am60 °FOvercast.5 mph85%30.06 "Hg25 mi
4:00 am60 °FClear.5 mph82%30.03 "Hg31 mi
3:00 am62 °FOvercast.5 mph79%30.02 "Hg34 mi
1:00 am63 °FOvercast.5 mph78%30.00 "Hg31 mi
12:00 am64 °FPassing clouds.5 mph78%29.99 "Hg31 mi
10:00 pm
Sat, Jul 20
68 °FPassing clouds.5 mph76%29.93 "Hg40 mi
9:00 pm69 °FOvercast.5 mph80%29.90 "Hg47 mi
7:00 pm67 °FOvercast.5 mph88%29.89 "Hg31 mi
6:00 pm64 °FLight rain. Low clouds.3 mph96%29.90 "Hg22 mi
4:00 pm79 °FOvercast.7 mph53%29.81 "Hg40 mi
3:00 pm72 °FFog.7 mph76%29.83 "Hg18 mi
Weather by CustomWeather, © 2019

See weather overview